K6LOT-13 Weather Reports


time (UTC)temp
C
wind
direction
speed
KPH
gust
KPH
rain 1hr
cm
rain 24hr
cm
rain mn
cm
humidity
%
barometer
mb
20260507015348 15 156 0.0 0.0 0.00 0.00 0.00 76 1019.8
20260507015235 21 263 0.0 6.4 0.00 0.00 0.00 56 1017.2
20260506153454 15 178 0.0 0.0 0.00 0.00 0.00 77 1019.8
20260506152947 15 279 0.0 0.0 0.00 0.00 0.00 77 1019.9
20260506152437 15 245 0.0 0.0 0.00 0.00 0.00 77 1019.9
20260506151932 14 287 0.0 0.0 0.00 0.00 0.00 78 1019.8
20260506151425 14 292 0.0 0.0 0.00 0.00 0.00 78 1019.9
20260506150914 14 244 0.0 0.0 0.00 0.00 0.00 78 1019.9
20260506150408 14 97 0.0 0.0 0.00 0.00 0.00 78 1019.8
20260506145858 14 266 0.0 0.0 0.00 0.00 0.00 78 1019.8
20260506145352 13 45 0.0 0.0 0.00 0.00 0.00 78 1019.8
20260506144336 13 308 0.0 0.0 0.00 0.00 0.00 77 1019.9
20260506143829 13 315 0.0 0.0 0.00 0.00 0.00 77 1019.9
20260506143319 13 315 0.0 0.0 0.00 0.00 0.00 76 1019.8
20260506142813 13 68 0.0 0.0 0.00 0.00 0.00 76 1019.8
20260506142307 13 68 0.0 0.0 0.00 0.00 0.00 76 1019.8
20260506141757 13 68 0.0 0.0 0.00 0.00 0.00 76 1019.8
20260506141250 13 68 0.0 0.0 0.00 0.00 0.00 76 1019.8
20260506140740 13 68 0.0 0.0 0.00 0.00 0.00 75 1019.6
20260506140234 13 68 0.0 0.0 0.00 0.00 0.00 75 1019.6
20260506135728 13 68 0.0 0.0 0.00 0.00 0.00 75 1019.6
20260506135222 13 68 0.0 0.0 0.00 0.00 0.00 75 1019.5
20260506134711 13 68 0.0 0.0 0.00 0.00 0.00 75 1019.5
20260506134205 13 68 0.0 0.0 0.00 0.00 0.00 75 1019.5
20260506133655 13 68 0.0 0.0 0.00 0.00 0.00 75 1019.4
20260506133149 13 52 0.0 0.0 0.00 0.00 0.00 75 1019.4
20260506132643 13 68 0.0 0.0 0.00 0.00 0.00 75 1019.4
20260506132136 13 13 0.0 0.0 0.00 0.00 0.00 75 1019.4
20260506131700 13 113 0.0 0.0 0.00 0.00 0.00 75 1019.4
20260506131124 13 113 0.0 0.0 0.00 0.00 0.00 75 1019.3
20260506130619 13 113 0.0 0.0 0.00 0.00 0.00 75 1019.3
20260506125632 13 113 0.0 0.0 0.00 0.00 0.00 74 1019.1
20260506125056 13 113 0.0 0.0 0.00 0.00 0.00 74 1019.1
20260506124546 13 113 0.0 0.0 0.00 0.00 0.00 74 1019.1
20260506124040 13 113 0.0 0.0 0.00 0.00 0.00 74 1019.1
20260506123534 13 113 0.0 0.0 0.00 0.00 0.00 74 1019.0
20260506123028 13 113 0.0 0.0 0.00 0.00 0.00 74 1018.9
20260506122521 13 23 0.0 0.0 0.00 0.00 0.00 74 1018.9
20260506122045 13 23 0.0 0.0 0.00 0.00 0.00 74 1018.9
20260506121510 13 76 0.0 0.0 0.00 0.00 0.00 74 1018.8
20260506121004 13 142 0.0 0.0 0.00 0.00 0.00 74 1018.8
20260506120454 13 113 0.0 0.0 0.00 0.00 0.00 74 1018.8
20260506120017 13 113 0.0 0.0 0.00 0.00 0.00 73 1018.8
20260506115437 13 113 0.0 0.0 0.00 0.00 0.00 73 1018.7
20260506114931 13 113 0.0 0.0 0.00 0.00 0.00 73 1018.7
20260506114425 13 113 0.0 0.0 0.00 0.00 0.00 73 1018.7
20260506113944 13 113 0.0 0.0 0.00 0.00 0.00 73 1018.7
20260506113408 13 113 0.0 0.0 0.00 0.00 0.00 73 1018.6
20260506112902 13 104 0.0 0.0 0.00 0.00 0.00 74 1018.7
20260506112356 13 90 0.0 0.0 0.00 0.00 0.00 74 1018.6
20260506111850 13 90 0.0 0.0 0.00 0.00 0.00 74 1018.6
20260506111340 13 90 0.0 0.0 0.00 0.00 0.00 74 1018.6
20260506110829 13 110 0.0 0.0 0.00 0.00 0.00 74 1018.6
20260506110323 13 68 0.0 0.0 0.00 0.00 0.00 74 1018.5
20260506105813 13 52 0.0 0.0 0.00 0.00 0.00 73 1018.6
20260506105307 13 293 0.0 0.0 0.00 0.00 0.00 73 1018.6
20260506104801 13 95 0.0 0.0 0.00 0.00 0.00 73 1018.6
20260506104250 13 90 0.0 0.0 0.00 0.00 0.00 73 1018.7
20260506103730 13 45 0.0 0.0 0.00 0.00 0.00 73 1018.6
20260506103224 13 211 0.0 0.0 0.00 0.00 0.00 73 1018.6
20260506102719 13 337 0.0 0.0 0.00 0.00 0.00 73 1018.5
20260506102213 13 320 0.0 0.0 0.00 0.00 0.00 73 1018.6
20260506101707 13 68 0.0 0.0 0.00 0.00 0.00 73 1018.6
20260506101226 13 68 0.0 0.0 0.00 0.00 0.00 73 1018.6
20260506100646 13 68 0.0 0.0 0.00 0.00 0.00 72 1018.6
20260506100140 13 68 0.0 0.0 0.00 0.00 0.00 72 1018.6
20260506095634 13 68 0.0 0.0 0.00 0.00 0.00 73 1018.6
20260506095158 13 68 0.0 0.0 0.00 0.00 0.00 73 1018.7
20260506094617 14 68 0.0 0.0 0.00 0.00 0.00 72 1018.8
20260506094111 14 68 0.0 0.0 0.00 0.00 0.00 72 1018.8
20260506093605 14 68 0.0 0.0 0.00 0.00 0.00 72 1018.7
20260506093055 14 68 0.0 0.0 0.00 0.00 0.00 72 1018.7
20260506092548 14 68 0.0 0.0 0.00 0.00 0.00 72 1018.7
20260506092029 14 68 0.0 0.0 0.00 0.00 0.00 72 1018.7
20260506091014 14 68 0.0 0.0 0.00 0.00 0.00 73 1018.8
20260506090507 14 68 0.0 0.0 0.00 0.00 0.00 73 1018.9
20260506090001 14 68 0.0 0.0 0.00 0.00 0.00 73 1018.9
20260506085454 14 68 0.0 0.0 0.00 0.00 0.00 73 1018.9
20260506084948 14 68 0.0 0.0 0.00 0.00 0.00 73 1019.0
20260506084442 14 67 0.0 0.0 0.00 0.00 0.00 72 1019.0
20260506083937 14 25 0.0 0.0 0.00 0.00 0.00 72 1019.1
20260506083431 14 0 0.0 0.0 0.00 0.00 0.00 72 1019.0
20260506082924 14 0 0.0 0.0 0.00 0.00 0.00 72 1019.0
20260506082414 14 0 0.0 0.0 0.00 0.00 0.00 72 1019.0
20260506081908 14 0 0.0 0.0 0.00 0.00 0.00 72 1019.0
20260506081402 14 0 0.0 0.0 0.00 0.00 0.00 72 1019.1
20260506080852 14 0 0.0 0.0 0.00 0.00 0.00 72 1019.2
20260506080346 15 0 0.0 0.0 0.00 0.00 0.00 72 1019.2
20260506073301 15 0 0.0 0.0 0.00 0.00 0.00 72 1019.2
20260506072750 15 0 0.0 0.0 0.00 0.00 0.00 72 1019.2
20260506072244 15 0 0.0 0.0 0.00 0.00 0.00 72 1019.1
20260506071738 15 0 0.0 0.0 0.00 0.00 0.00 71 1019.0
20260506071228 15 0 0.0 0.0 0.00 0.00 0.00 71 1019.0
20260506070722 15 0 0.0 0.0 0.00 0.00 0.00 71 1018.9
20260506070211 15 0 0.0 0.0 0.00 0.00 0.00 71 1018.8
20260506062114 15 0 0.0 0.0 0.00 0.00 0.00 70 1018.4
20260506061604 15 0 0.0 0.0 0.00 0.00 0.00 70 1018.5
20260506061057 15 0 0.0 0.0 0.00 0.00 0.00 70 1018.5
20260506060547 15 0 0.0 0.0 0.00 0.00 0.00 70 1018.5
20260506050914 16 0 0.0 0.0 0.00 0.00 0.00 68 1018.1
20260506050408 16 0 0.0 0.0 0.00 0.00 0.00 67 1018.1
20260506044845 16 0 0.0 0.0 0.00 0.00 0.00 67 1017.9
20260506044335 16 0 0.0 0.0 0.00 0.00 0.00 66 1017.8
20260506043829 16 0 0.0 0.0 0.00 0.00 0.00 66 1017.7
20260506043354 16 0 0.0 0.0 0.00 0.00 0.00 66 1017.6
20260506042817 16 0 0.0 0.0 0.00 0.00 0.00 66 1017.5
20260506042307 16 0 0.0 0.0 0.00 0.00 0.00 65 1017.4
20260506041800 16 0 0.0 0.0 0.00 0.00 0.00 65 1017.4
20260506041241 16 0 0.0 0.0 0.00 0.00 0.00 65 1017.3
20260506040805 16 0 0.0 0.0 0.00 0.00 0.00 65 1017.3
20260506040229 16 0 0.0 0.0 0.00 0.00 0.00 65 1017.3
20260506035718 16 0 0.0 0.0 0.00 0.00 0.00 65 1017.3
20260506035212 16 0 0.0 0.0 0.00 0.00 0.00 65 1017.2
20260506034732 16 0 0.0 0.0 0.00 0.00 0.00 64 1017.1
20260506034156 16 0 0.0 0.0 0.00 0.00 0.00 64 1017.0
20260506033646 16 0 0.0 0.0 0.00 0.00 0.00 64 1017.0
20260506033140 16 293 0.0 0.0 0.00 0.00 0.00 63 1017.0
20260506032122 17 293 0.0 0.0 0.00 0.00 0.00 63 1016.8
20260506031647 17 325 0.0 0.0 0.00 0.00 0.00 62 1016.7
20260506031111 17 225 0.0 0.0 0.00 0.00 0.00 62 1016.6
20260506030601 17 294 0.0 0.0 0.00 0.00 0.00 62 1016.5
20260506030054 17 317 0.0 0.0 0.00 0.00 0.00 61 1016.5
20260506025544 17 242 0.0 0.0 0.00 0.00 0.00 61 1016.4
20260506025038 17 258 0.0 0.0 0.00 0.00 0.00 60 1016.2
20260506024532 17 264 0.0 0.0 0.00 0.00 0.00 60 1016.2
20260506024026 17 252 0.0 0.0 0.00 0.00 0.00 60 1016.2
20260506023519 17 227 0.0 0.0 0.00 0.00 0.00 60 1016.2
20260506022508 17 264 0.0 0.0 0.00 0.00 0.00 60 1016.0
20260506022002 17 225 0.0 0.0 0.00 0.00 0.00 60 1015.9
20260506021452 17 32 0.0 0.0 0.00 0.00 0.00 59 1015.8
20260506020945 17 158 0.0 0.0 0.00 0.00 0.00 59 1015.9
20260506020439 17 289 0.0 0.0 0.00 0.00 0.00 59 1015.8